Flag for U.S.A. Weather past 2 weeks in Rancho Cucamonga, California, U.S.A.

Now
69 °F

Passing clouds.


Feels Like: 69 °F
Forecast: 51 / 77 °F
Wind: 7 mph from South

Location: Ontario International Airport

Current Time: Apr 1, 2015 at 2:15:09 PM

Latest Report: Apr 1, 2015 at 12:53 PM


Visibility: 10 mi

Pressure: 29.95 "Hg

Humidity: 44%

Dew point: 46 °F

Location of Rancho CucamongaLocation

Historic Weather in Rancho Cucamonga — Graph

°F

Rancho Cucamonga temperature yesterday

Maximum temperature yesterday: 80 °F (at 2:53 PM)
Minimum temperature yesterday: 56 °F (at 6:53 AM)
Average temperature yesterday: 66 °F

Past Weeks' High & Low Weather Summary

 TemperatureHumidityPressure
High92 °F (Mar 26, 2:53 PM)97% (Mar 21, 6:53 AM)30.18 "Hg (Mar 21, 6:53 AM)
Low53 °F (Mar 24, 5:53 AM)9% (Mar 26, 1:53 PM)29.85 "Hg (Mar 17, 4:53 PM)
Average68 °F53%30.01 "Hg
* Reported Mar 17 12:53 PM — Apr 1 12:53 PM, Rancho Cucamonga, Weather by CustomWeather, © 2015

Note: Actual official high and low records may vary slightly from our data, if they occured in-between our weather recording intervals... More about our weather records

Advertising

Rancho Cucamonga weather history for previous 24 hours

 ConditionsComfort  
Time TempWeatherWind HumidityBarometerVisibility
12:53 PM
Wed, Apr 1
69 °FPassing clouds.7 mph44%29.95 "Hg10 mi
11:53 AM66 °FPassing clouds.5 mph52%29.97 "Hg9 mi
10:53 AM63 °FScattered clouds.6 mph60%30.01 "Hg9 mi
9:53 AM59 °FMostly cloudy.5 mph69%30.01 "Hg9 mi
8:53 AM58 °FOvercast.5 mph75%30.00 "Hg5 mi
7:53 AM57 °FPartly sunny.7 mph74%29.97 "Hg6 mi
6:53 AM57 °FOvercast.No wind81%29.94 "Hg5 mi
5:53 AM57 °FMostly cloudy.6 mph81%29.94 "Hg7 mi
4:53 AM56 °FFog.5 mph90%29.94 "Hg6 mi
3:53 AM56 °FFog.9 mph90%29.95 "Hg3 mi
2:53 AM56 °FPassing clouds.5 mph90%29.95 "Hg8 mi
1:53 AM57 °FPassing clouds.5 mph87%29.96 "Hg9 mi
12:53 AM58 °FPassing clouds.3 mph84%29.95 "Hg10 mi
11:53 PM
Tue, Mar 31
58 °FPassing clouds.5 mph81%29.95 "Hg10 mi
10:53 PM59 °FPassing clouds.3 mph75%29.96 "Hg10 mi
9:53 PM60 °FPassing clouds.9 mph75%29.96 "Hg10 mi
8:53 PM63 °FPassing clouds.13 mph68%29.95 "Hg10 mi
7:53 PM66 °FPassing clouds.10 mph56%29.92 "Hg10 mi
6:53 PM70 °FScattered clouds.12 mph42%29.90 "Hg10 mi
5:53 PM74 °FScattered clouds.14 mph33%29.90 "Hg10 mi
4:53 PM76 °FPartly sunny.13 mph32%29.90 "Hg10 mi
3:53 PM78 °FPartly sunny.13 mph32%29.90 "Hg10 mi
2:53 PM80 °FPartly sunny.16 mph28%29.91 "Hg10 mi
Weather by CustomWeather, © 2015

See weather overviewHow to use our weather pages